North Myrtle Beach, SC

7:44 PM EST on November 17, 2019 (GMT -0500)
Grand Strand

Weather History for KCRE - August, 2019

Change the Weather History Date:

Saturday, August 31, 2019

  Actual Average Record
Temperature  
Mean Temperature 79 °F 78 °F  
Max Temperature 86 °F 86 °F 95 °F (1970)
Min Temperature 71 °F 70 °F 60 °F (1946)
Degree Days  
Heating Degree Days 0 0  
Month to date heating degree days 0 0  
Since 1 June heating degree days 0 0  
Since 1 July heating degree days 0 0  
Cooling Degree Days 14 13  
Month to date cooling degree days 483 431  
Year to date cooling degree days 1775 1476  
Since 1 June cooling degree days 1382 1264  
Growing Degree Days 28 (Base 50)    
Moisture  
Dew Point 69 °F    
Average Humidity 72    
Maximum Humidity 93    
Minimum Humidity 51    
Precipitation  
Precipitation 0.00 in 0.26 in 7.19 in (2006)
Month to date precipitation 8.66 7.41  
Year to date precipitation 31.67 35.35  
Sea Level Pressure  
Sea Level Pressure 30.13 in    
Wind  
Wind Speed 8 mph (NE)    
Max Wind Speed 16 mph    
Max Gust Speed 21 mph    
Visibility 10 miles    
Events      
T = Trace of Precipitation, MM = Missing Value Source: NWS Daily Summary

Daily Weather History Graph

Daily Weather History Graph

Search for Another Location

Airport or City:

Astronomy

Aug. 31, 2019 Rise Set
Actual Time 6:47 AM EDT 7:42 PM EDT
Civil Twilight 6:22 AM EDT 8:07 PM EDT
Nautical Twilight 5:52 AM EDT 8:37 PM EDT
Astronomical Twilight 5:20 AM EDT 9:08 PM EDT
Moon 8:00 AM EDT (8/31) 8:57 PM EDT (8/31)
Length of Visible Light 13h 45m
Length of Day
12h 54m
New Moon, 2% of the Moon is Illuminated
Aug 31
New Moon
Sep 5
First Quarter
Sep 14
Full
Sep 21
Last Quarter
Sep 28
New

Hourly Weather History & Observations

Time (EDT) Temp. Heat Index Dew Point Humidity Pressure Visibility Wind Dir Wind Speed Gust Speed Precip Events Conditions
12:53 AM 75.0 °F - 69.1 °F 82% 30.12 in 10.0 mi North 3.5 mph - N/A   Clear
1:53 AM 73.0 °F - 69.1 °F 87% 30.12 in 10.0 mi North 4.6 mph - N/A   Clear
2:53 AM 72.0 °F - 69.1 °F 91% 30.11 in 10.0 mi NNE 4.6 mph - N/A   Clear
3:53 AM 72.0 °F - 69.1 °F 91% 30.10 in 10.0 mi NNE 3.5 mph - N/A   Clear
4:53 AM 72.0 °F - 69.1 °F 91% 30.10 in 10.0 mi NNE 3.5 mph - N/A   Clear
5:53 AM 71.1 °F - 68.0 °F 90% 30.10 in 10.0 mi NNE 4.6 mph - N/A   Clear
6:53 AM 71.1 °F - 68.0 °F 90% 30.12 in 10.0 mi NNE 5.8 mph - N/A   Clear
7:53 AM 73.0 °F - 69.1 °F 87% 30.13 in 10.0 mi NNE 6.9 mph - N/A   Partly Cloudy
8:53 AM 75.9 °F - 69.1 °F 79% 30.13 in 10.0 mi NE 9.2 mph - N/A   Clear
9:53 AM 78.1 °F - 70.0 °F 76% 30.15 in 10.0 mi NE 9.2 mph - N/A   Clear
10:53 AM 81.0 °F 84.4 °F 70.0 °F 69% 30.15 in 10.0 mi NE 8.1 mph - N/A   Partly Cloudy
11:53 AM 82.0 °F 86.3 °F 71.1 °F 69% 30.16 in 10.0 mi ENE 8.1 mph - N/A   Scattered Clouds
12:53 PM 84.0 °F 88.4 °F 70.0 °F 63% 30.15 in 10.0 mi East 10.4 mph 19.6 mph N/A   Mostly Cloudy
1:53 PM 84.0 °F 86.5 °F 66.9 °F 56% 30.15 in 10.0 mi East 12.7 mph - N/A   Clear
2:53 PM 84.0 °F 85.8 °F 64.9 °F 53% 30.14 in 10.0 mi East 10.4 mph - N/A   Mostly Cloudy
3:53 PM 82.9 °F 85.0 °F 66.0 °F 56% 30.13 in 10.0 mi East 11.5 mph - N/A   Clear
4:53 PM 82.9 °F 85.4 °F 66.9 °F 58% 30.12 in 10.0 mi East 10.4 mph - N/A   Overcast
5:53 PM 84.0 °F 88.4 °F 70.0 °F 63% 30.11 in 10.0 mi East 9.2 mph - N/A   Mostly Cloudy
6:53 PM 82.0 °F 86.3 °F 71.1 °F 69% 30.10 in 10.0 mi ENE 11.5 mph - N/A   Mostly Cloudy
7:53 PM 79.0 °F - 71.1 °F 77% 30.11 in 10.0 mi ENE 6.9 mph - N/A   Clear
8:53 PM 78.1 °F - 71.1 °F 79% 30.12 in 10.0 mi ENE 8.1 mph - N/A   Partly Cloudy
9:53 PM 78.1 °F - 71.1 °F 79% 30.13 in 10.0 mi ENE 8.1 mph - N/A   Clear
10:53 PM 75.9 °F - 71.1 °F 85% 30.14 in 10.0 mi ENE 5.8 mph - N/A   Clear
11:53 PM 75.0 °F - 70.0 °F 84% 30.13 in 10.0 mi NE 5.8 mph - N/A   Clear